This is the latest recevied weather packets stored in our database for station/object OE9GTV. If no packets are shown the sender has not sent any weather packets the latest 10 day(s).
| Time | Temp. | Humidity | Pressure | Rain* | Wind** | Luminosity | Snow |
|---|---|---|---|---|---|---|---|
| 1777804272 | 22.22° C | 44% | 1011.1 hPa | 0 mm | - | 0 W/m² | - |
| 1777803672 | 22.22° C | 42% | 1011.3 hPa | 0 mm | - | 0 W/m² | - |
| 1777803072 | 22.78° C | 41% | 1011.3 hPa | 0 mm | - | 0 W/m² | - |
| 1777802472 | 22.78° C | 40% | 1011.4 hPa | 0 mm | - | 0 W/m² | - |
| 1777801872 | 22.78° C | 41% | 1011.5 hPa | 0 mm | - | 0 W/m² | - |
| 1777801272 | 22.78° C | 40% | 1011.6 hPa | 0 mm | - | 0 W/m² | - |
| 1777800672 | 22.78° C | 40% | 1011.7 hPa | 0 mm | - | 0 W/m² | - |
| 1777800072 | 23.33° C | 39% | 1011.8 hPa | 0 mm | - | 0 W/m² | - |
| 1777799472 | 23.33° C | 39% | 1011.8 hPa | 0 mm | - | 0 W/m² | - |
| 1777798872 | 22.78° C | 37% | 1011.9 hPa | 0 mm | - | 0 W/m² | - |
| 1777798271 | 22.22° C | 41% | 1012 hPa | 0 mm | - | 0 W/m² | - |
| 1777797671 | 21.11° C | 42% | 1012 hPa | 0 mm | - | 0 W/m² | - |
| 1777797071 | 20° C | 40% | 1012.1 hPa | 0 mm | - | 0 W/m² | - |
| 1777796471 | 20° C | 40% | 1012.2 hPa | 0 mm | - | 0 W/m² | - |
| 1777795871 | 20° C | 42% | 1012.2 hPa | 0 mm | - | 0 W/m² | - |
| 1777795271 | 19.44° C | 39% | 1012.3 hPa | 0 mm | - | 0 W/m² | - |
| 1777794671 | 19.44° C | 46% | 1012.3 hPa | 0 mm | - | 0 W/m² | - |
| 1777794071 | 18.89° C | 41% | 1012.2 hPa | 0 mm | - | 0 W/m² | - |
| 1777793471 | 18.33° C | 42% | 1012.3 hPa | 0 mm | - | 0 W/m² | - |
| 1777792871 | 17.78° C | 51% | 1012.3 hPa | 0 mm | - | 0 W/m² | - |
| 1777792271 | 17.78° C | 53% | 1012.4 hPa | 0 mm | - | 0 W/m² | - |
| 1777791670 | 16.67° C | 55% | 1012.5 hPa | 0 mm | - | 0 W/m² | - |
| 1777791071 | 15.56° C | 57% | 1012.5 hPa | 0 mm | - | 0 W/m² | - |
| 1777790470 | 13.89° C | 64% | 1012.6 hPa | 0 mm | - | 0 W/m² | - |
| 1777789870 | 12.78° C | 65% | 1012.7 hPa | 0 mm | - | 0 W/m² | - |
* Rain latest hour (hover to see other rain measurements)
** Current wind speed in m/s (hover to see current wind gust speed)